[[{"header":{"parameterUnit":"m.s-1","parameterCategory":1,"la1":30.2991,"la2":30.254,"lo1":-89.0895,"lo2":-89.0444,"dy":0.0017,"dx":0.0017,"nx":28,"ny":28,"refTime":"2023-09-24T21:00:00:Z","depth":0,"parameterNumber":2,"parameterNumberName":"U-component_of_WINDS"},"data":[0,0,0,0,0,0,0,0,0,0,0,0,0,0,0,0,0,0,0,0,0,0,0,0,0,0,0,0,0,0,0,0,0,0,0,0,0,0,0,0,0,0,0,0,0,0,0,0,0,0,0,0,0,0,0,0,0,0,-0.2472,-0.2473,0,-0.2513,-0.2513,-0.2514,-0.2522,-0.2522,-0.2522,-0.2521,-0.2565,-0.2566,-0.2568,0,0,0,0,0,0,0,0,0,0,0,0,0,-0.2405,-0.2406,-0.2472,-0.2473,-0.2473,-0.2513,-0.2513,-0.2514,-0.2522,-0.2522,-0.2522,-0.2521,-0.2564,-0.2566,-0.2568,0,0,0,0,0,0,0,0,0,0,0,0,0,-0.2439,-0.2407,-0.2472,-0.2482,-0.2483,-0.2512,-0.2513,-0.2514,-0.2522,-0.2522,-0.2521,-0.2521,-0.2564,-0.2566,-0.2568,-0.2591,0,0,-0.2575,-0.2576,0,0,0,0,0,0,0,0,-0.2437,-0.2441,-0.248,-0.2481,-0.2483,-0.2512,-0.2505,-0.254,-0.2522,-0.2508,-0.2521,-0.2521,-0.2548,-0.2551,-0.256,-0.2593,-0.2595,-0.2575,-0.2576,-0.2577,-0.2578,0,0,0,0,0,0,0,-0.2435,-0.244,-0.2488,-0.2481,-0.2482,-0.2486,-0.249,-0.2512,-0.253,-0.2509,-0.251,-0.2514,-0.2548,-0.2558,-0.2561,-0.2595,-0.2575,-0.2577,-0.2578,-0.2579,-0.265,-0.2651,0,0,0,0,0,0,-0.243,-0.2438,-0.2487,-0.2489,-0.2458,-0.2487,-0.2492,-0.2503,-0.253,-0.2533,-0.2515,-0.2514,-0.2554,-0.2558,-0.2563,-0.2592,-0.2577,-0.2579,-0.258,-0.265,-0.265,-0.2651,0,0,0,0,0,0,-0.2429,-0.2434,-0.2485,-0.2464,-0.247,-0.2489,-0.2501,-0.2504,-0.2513,-0.2534,-0.2537,-0.2521,-0.2554,-0.256,-0.2584,-0.2593,-0.258,-0.2582,-0.2649,-0.265,-0.2651,-0.265,0,0,0,0,0,0,-0.2427,-0.2434,-0.2442,-0.2464,-0.2471,-0.2505,-0.2502,-0.2505,-0.2517,-0.2517,-0.254,-0.2544,-0.2554,-0.2581,-0.2586,-0.2596,-0.2584,-0.2648,-0.2649,-0.265,-0.2649,-0.265,-0.2652,0,0,0,0,0,-0.2424,-0.244,-0.2442,-0.2448,-0.2482,-0.2505,-0.251,-0.2521,-0.2518,-0.2526,-0.254,-0.2543,-0.2591,-0.2583,-0.2589,-0.26,-0.2648,-0.2649,-0.265,-0.2648,-0.265,-0.2652,0,0,0,0,0,0,-0.2419,-0.2443,-0.2446,-0.2469,-0.2485,-0.2507,-0.2518,-0.2522,-0.254,-0.254,-0.2553,-0.2558,-0.2582,-0.2594,-0.2584,-0.2624,-0.2619,-0.2622,-0.2616,-0.2618,-0.2619,-0.2616,-0.2586,0,0,0,0,0,-0.2421,-0.2437,-0.2457,-0.2476,-0.2484,-0.25,-0.251,-0.2517,-0.2535,-0.2542,-0.2557,-0.2575,-0.2594,-0.2606,-0.2625,-0.265,-0.2656,-0.2661,-0.2662,-0.2663,-0.2666,-0.2682,-0.2684,-0.2655,-0.2655,-0.2655,0,0,-0.2424,-0.2439,-0.2449,-0.2476,-0.2489,-0.2507,-0.2505,-0.2524,-0.2538,-0.2545,-0.2569,-0.2581,-0.2601,-0.2627,-0.2638,-0.2637,-0.2675,-0.2665,-0.2666,-0.2668,-0.2683,-0.2686,-0.2688,-0.2656,-0.2656,-0.2656,0,0,-0.244,-0.2453,-0.247,-0.2483,-0.2503,-0.2514,-0.2518,-0.2539,-0.2547,-0.2571,-0.2578,-0.2595,-0.2627,-0.2642,-0.2654,-0.2676,-0.268,-0.2682,-0.2689,-0.2704,-0.2706,-0.2709,-0.2718,-0.2721,-0.2684,-0.2684,-0.2684,0,-0.2442,-0.2468,-0.2479,-0.2497,-0.2509,-0.2516,-0.2535,-0.2548,-0.2573,-0.2582,-0.2579,-0.2621,-0.2635,-0.2664,-0.267,-0.2679,-0.2685,-0.2679,-0.2705,-0.2707,-0.271,-0.2718,-0.2722,-0.2684,-0.2684,-0.2684,-0.2684,0,-0.2471,-0.2489,-0.2501,-0.2525,-0.2538,-0.2556,-0.257,-0.2583,-0.2589,-0.26,-0.2625,-0.2643,-0.2666,-0.2673,-0.2679,-0.2704,-0.2702,-0.2702,-0.2698,-0.2712,-0.2721,-0.2724,-0.2684,-0.2684,-0.2684,-0.2684,0,0,-0.2485,-0.2514,-0.2519,-0.253,-0.2553,-0.2568,-0.2587,-0.2609,-0.262,-0.2637,-0.2655,-0.2682,-0.2683,-0.2696,-0.2704,-0.2717,-0.2735,-0.2716,-0.2716,-0.272,-0.2765,-0.2766,-0.2769,-0.2738,-0.2739,-0.2739,-0.2764,0,-0.2504,-0.2538,-0.2548,-0.2577,-0.2595,-0.2602,-0.2619,-0.2635,-0.2646,-0.2664,-0.2676,-0.2696,-0.2694,-0.2703,-0.2716,-0.273,-0.2745,-0.2728,-0.2756,-0.2756,-0.2751,-0.2774,-0.2774,-0.2797,-0.2767,-0.2768,-0.2768,0,-0.2531,-0.2549,-0.2579,-0.2601,-0.2609,-0.2623,-0.2645,-0.2661,-0.268,-0.2688,-0.2703,-0.271,-0.2732,-0.2726,-0.2757,-0.2745,-0.2757,-0.2766,-0.2767,-0.2771,-0.2764,-0.2779,-0.2804,-0.2808,-0.2773,-0.2773,-0.2773,0,-0.254,-0.2571,-0.2594,-0.2603,-0.2628,-0.2639,-0.265,-0.2669,-0.2682,-0.2701,-0.271,-0.2731,-0.2743,-0.276,-0.2773,-0.2767,-0.2804,-0.2798,-0.2811,-0.2811,-0.2819,-0.2819,-0.2848,-0.2825,-0.2825,-0.2825,-0.2825,0,-0.2561,-0.258,-0.2598,-0.2612,-0.2634,-0.2646,-0.2667,-0.2679,-0.2695,-0.2713,-0.272,-0.2737,-0.2752,-0.2771,-0.2782,-0.2807,-0.2812,-0.2819,-0.2822,-0.2819,-0.2818,-0.2828,-0.2827,-0.2826,-0.2826,-0.2826,-0.2825,0,-0.2575,-0.2588,-0.2613,-0.2635,-0.2641,-0.2656,-0.2675,-0.269,-0.2701,-0.2723,-0.2729,-0.2747,-0.2769,-0.2784,-0.2813,-0.282,-0.2848,-0.2849,-0.2841,-0.2842,-0.2855,-0.2854,-0.2892,-0.2898,-0.287,-0.287,-0.2871,0,-0.2588,-0.2603,-0.2626,-0.2638,-0.2649,-0.2668,-0.2681,-0.2693,-0.2707,-0.273,-0.2743,-0.2765,-0.2785,-0.2821,-0.2837,-0.286,-0.2863,-0.2874,-0.2866,-0.2863,-0.2865,-0.2864,-0.2866,-0.2876,-0.2876,-0.2876,-0.2876,0,-0.2611,-0.2617,-0.2635,-0.2655,-0.267,-0.2687,-0.2704,-0.2714,-0.273,-0.2745,-0.2768,-0.2782,-0.2812,-0.2835,-0.2859,-0.2872,-0.2878,-0.2879,-0.2883,-0.2881,-0.2876,-0.288,-0.2846,-0.2878,-0.2878,-0.2878,-0.2878,-0.2878,-0.2626,-0.2639,-0.2658,-0.2678,-0.2692,-0.2708,-0.2723,-0.2736,-0.2755,-0.278,-0.2786,-0.2811,-0.2831,-0.2864,-0.2877,-0.2897,-0.2896,-0.2902,-0.2904,-0.2905,-0.2906,-0.2872,-0.2901,-0.2901,-0.2901,-0.2901,-0.2901,0,-0.265,-0.2662,-0.2681,-0.2704,-0.272,-0.2723,-0.2742,-0.2756,-0.2777,-0.2795,-0.2813,-0.284,-0.2863,-0.2881,-0.2905,-0.2918,-0.2921,-0.2924,-0.2924,-0.2927,-0.2905,-0.2899,-0.2921,-0.2921,-0.2921,-0.2921,-0.2921,-0.2921,-0.2665,-0.2688,-0.2696,-0.2727,-0.274,-0.2763,-0.2774,-0.2789,-0.2804,-0.2833,-0.2852,-0.2863,-0.2882,-0.2907,-0.2929,-0.2933,-0.2942,-0.2945,-0.2951,-0.293,-0.2928,-0.2926,-0.2921,-0.2946,-0.2946,-0.2971,-0.2971,-0.2971]},{"header":{"parameterUnit":"m.s-1","parameterCategory":1,"la1":30.2991,"la2":30.254,"lo1":-89.0895,"lo2":-89.0444,"dy":0.0017,"dx":0.0017,"nx":28,"ny":28,"refTime":"2023-09-24T21:00:00:Z","depth":0,"parameterNumber":3,"parameterNumberName":"V-component_of_WINDS"},"data":[0,0,0,0,0,0,0,0,0,0,0,0,0,0,0,0,0,0,0,0,0,0,0,0,0,0,0,0,0,0,0,0,0,0,0,0,0,0,0,0,0,0,0,0,0,0,0,0,0,0,0,0,0,0,0,0,0,0,5.0096,5.0096,0,5.0066,5.0066,5.0065,4.9989,4.9988,4.9986,4.9984,4.9955,4.9956,4.9956,0,0,0,0,0,0,0,0,0,0,0,0,0,5.009,5.009,5.0096,5.0096,5.0095,5.0066,5.0065,5.0065,4.999,4.9988,4.9986,4.9984,4.9955,4.9956,4.9956,0,0,0,0,0,0,0,0,0,0,0,0,0,5.0079,5.009,5.0096,5.0054,5.005,5.0066,5.0065,5.0065,4.999,4.9987,4.9985,4.9983,4.9954,4.9956,4.9957,5.0011,0,0,4.996,4.996,0,0,0,0,0,0,0,0,5.008,5.008,5.0061,5.0057,5.0052,5.0029,5.0052,5.0047,4.9991,5.0013,4.9984,4.9982,4.9982,4.998,4.998,5.001,5.0009,4.996,4.9961,4.9961,4.9961,0,0,0,0,0,0,0,5.0081,5.0081,5.0084,5.006,5.0056,5.0037,5.0033,5.0051,5.0011,5.0011,5.0005,5.0002,4.9979,4.9979,4.9979,5.0008,4.996,4.9961,4.9962,4.9962,5.0081,5.0083,0,0,0,0,0,0,5.0088,5.0082,5.0085,5.0083,5.0061,5.0039,5.0035,5.0039,5.0011,5.0004,5.0005,4.9999,4.9978,4.9978,4.9977,5.0038,4.9961,4.9962,4.9963,5.0078,5.0081,5.0084,0,0,0,0,0,0,5.0088,5.0089,5.0086,5.0081,5.0079,5.0042,5.0047,5.004,5.004,5.0006,4.9999,5.0012,4.9977,4.9976,5.0003,5.0036,4.9963,4.9964,5.0075,5.0079,5.0083,5.0162,0,0,0,0,0,0,5.0088,5.0089,5.0109,5.0082,5.008,5.0113,5.0049,5.0041,5.0041,5.0034,5.0011,5.0005,4.9975,5.0002,5.0004,5.0036,4.9964,5.0072,5.0077,5.0082,5.0156,5.0168,5.0178,0,0,0,0,0,5.0088,5.0133,5.0111,5.0111,5.0104,5.0115,5.0113,5.0077,5.0045,5.0064,5.0043,5.0006,5.0033,5.0005,5.0007,5.004,5.007,5.0076,5.0081,5.0151,5.0166,5.0178,0,0,0,0,0,0,5.0166,5.0129,5.0103,5.0141,5.0132,5.0102,5.0126,5.0094,5.0093,5.0086,5.0042,5.0037,5.0071,5.0058,5.0029,5.0092,5.0045,5.0052,5.0098,5.0111,5.0122,5.0124,4.9965,0,0,0,0,0,5.0188,5.0199,5.0166,5.0203,5.0199,5.0164,5.0167,5.014,5.0128,5.0123,5.0104,5.0094,5.01,5.0106,5.011,5.0155,5.0148,5.0179,5.019,5.0199,5.0204,5.0226,5.0239,5.0103,5.0103,5.0103,0,0,5.0232,5.0213,5.0223,5.0218,5.0207,5.0219,5.016,5.0177,5.0185,5.0126,5.015,5.0136,5.0122,5.0158,5.0173,5.0149,5.024,5.0206,5.0213,5.0214,5.0233,5.0246,5.0257,5.0107,5.0106,5.0105,0,0,5.032,5.0307,5.0335,5.0326,5.031,5.0286,5.0293,5.0268,5.0256,5.028,5.0235,5.0245,5.0257,5.0249,5.0247,5.0331,5.0297,5.0334,5.0391,5.0412,5.0423,5.0432,5.0461,5.0472,5.034,5.034,5.034,0,5.0377,5.0394,5.0354,5.0373,5.0371,5.0318,5.0346,5.0339,5.0326,5.0327,5.03,5.0313,5.0301,5.0333,5.0354,5.0354,5.036,5.0336,5.0425,5.0434,5.0442,5.0469,5.048,5.0345,5.0344,5.0344,5.0343,0,5.0464,5.0477,5.0502,5.0489,5.0491,5.0515,5.0479,5.0486,5.0459,5.0438,5.0462,5.0445,5.0444,5.0451,5.0425,5.048,5.0465,5.0433,5.0385,5.046,5.0484,5.0494,5.0351,5.035,5.0348,5.0347,0,0,5.0599,5.0564,5.0574,5.0567,5.0546,5.0555,5.0577,5.0575,5.0581,5.0575,5.0591,5.0602,5.0571,5.0569,5.0542,5.0561,5.0628,5.0526,5.0525,5.0544,5.0686,5.0709,5.0722,5.0605,5.0607,5.0609,5.0686,0,5.068,5.0713,5.0678,5.0719,5.0729,5.0679,5.0697,5.0687,5.0668,5.0675,5.0654,5.0662,5.0622,5.062,5.0637,5.0616,5.0655,5.061,5.0619,5.062,5.0622,5.0735,5.076,5.0834,5.0696,5.0698,5.0699,0,5.0778,5.0774,5.0816,5.0791,5.0795,5.0812,5.0807,5.0814,5.0801,5.0786,5.0784,5.0751,5.077,5.0725,5.075,5.072,5.0723,5.0713,5.0715,5.0713,5.0663,5.0734,5.0857,5.0867,5.0714,5.0713,5.0711,0,5.087,5.0876,5.0901,5.0897,5.087,5.0883,5.0872,5.0857,5.0858,5.0855,5.0855,5.0854,5.0854,5.0854,5.0822,5.0792,5.0851,5.0804,5.0839,5.084,5.0852,5.0851,5.0975,5.0857,5.0856,5.0856,5.0856,0,5.0962,5.0989,5.0941,5.0957,5.0986,5.0946,5.0976,5.096,5.0947,5.0958,5.0916,5.0928,5.0886,5.0893,5.0869,5.0893,5.0893,5.0881,5.0874,5.0884,5.0885,5.0883,5.0877,5.0859,5.0859,5.0858,5.0857,0,5.1069,5.1038,5.1062,5.1034,5.1028,5.105,5.1026,5.104,5.1019,5.1034,5.1035,5.1002,5.1008,5.0977,5.0978,5.0962,5.0998,5.0983,5.1002,5.0997,5.1033,5.1029,5.1158,5.1172,5.1047,5.1048,5.1049,0,5.1129,5.1148,5.1123,5.1127,5.1118,5.1126,5.1127,5.1089,5.1092,5.1078,5.1093,5.1096,5.1096,5.1109,5.1085,5.1086,5.107,5.1115,5.1069,5.1079,5.1068,5.1067,5.1068,5.1124,5.1125,5.1126,5.1128,0,5.1239,5.1223,5.1225,5.1222,5.1224,5.122,5.1214,5.122,5.1179,5.1184,5.119,5.119,5.1191,5.1195,5.119,5.118,5.1147,5.1142,5.115,5.1159,5.1169,5.1163,5.1026,5.1139,5.1138,5.1137,5.1136,5.1136,5.1323,5.1337,5.1321,5.1325,5.1316,5.1311,5.1321,5.1301,5.1305,5.1302,5.1281,5.129,5.1277,5.1268,5.126,5.1267,5.1246,5.1258,5.1261,5.1264,5.1269,5.1169,5.1267,5.1267,5.1266,5.1266,5.1266,0,5.1429,5.1416,5.142,5.1412,5.1415,5.1384,5.1375,5.138,5.1389,5.1379,5.1379,5.1386,5.1389,5.1366,5.1366,5.1376,5.1361,5.1377,5.1375,5.1373,5.1289,5.1281,5.1389,5.1389,5.1389,5.1389,5.1389,5.1389,5.1484,5.1506,5.1488,5.1506,5.1493,5.1502,5.1499,5.1494,5.1486,5.1494,5.1496,5.1481,5.1466,5.1464,5.1465,5.1459,5.146,5.1481,5.1469,5.1391,5.1379,5.1367,5.136,5.1482,5.1482,5.1551,5.1552,5.1553]}]]